Regional Weather Roundup
Issued by NWS Lake Charles, LA

Current Version | Previous Version | Text Only | Print | Product List | Glossary On
Versions: 1 2 3 4 5 6 7 8 9 10 11 12 13 14 15 16 17 18 19 20 21 22 23 24 25 26 27 28 29 30 31 32 33 34 35 36 37 38 39 40 41 42 43 44 45 46 47 48 49 50
966
ASUS44 KLCH 160210
RWRLCH
REGIONAL WEATHER ROUNDUP
NATIONAL WEATHER SERVICE LAKE CHARLES LA
900 PM CDT TUE OCT 15 2019

Note: "fair" indicates few or no clouds below 12,000 feet with no
significant weather and/or obstructions to visibility.


ACROSS SOUTHEAST TEXAS

CITY           SKY/WX    TMP DP  RH WIND       PRES   REMARKS
BEAUMONT       CLOUDY    80  75  84 N3        29.89R
BEAUMONT CITY  NOT AVBL
ORANGE         FAIR      77  74  92 CALM      29.90F
JASPER         FAIR      74  74  97 CALM      29.91R
$$

ACROSS CENTRAL LOUISIANA

CITY           SKY/WX    TMP DP  RH WIND       PRES   REMARKS
LEESVILLE      CLOUDY    74  73  98 W5        29.88R
FULLERTON      MOCLDY    74  73  97 CALM      29.86  FOG
ALEXANDRIA INT LGT RAIN  74  73  97 CALM      29.85F
ESLER FIELD    LGT RAIN  74  73  97 CALM      29.87S FOG
DERIDDER       MOCLDY    74  72  96 CALM      29.90R
OAKDALE        FAIR      73  72  94 CALM      29.88F
OPELOUSAS      LGT RAIN  72  71  97 S6        29.92F
$$

ACROSS SOUTHWEST AND SOUTH CENTRAL LOUISIANA

CITY           SKY/WX    TMP DP  RH WIND       PRES   REMARKS
DEQUINCY       FAIR      71  70  96 CALM      29.89F
SULPHUR        CLOUDY    78  74  90 CALM      29.90S
LAKE CHARLES   MOCLDY    78  76  93 CALM      29.89S
CHENNAULT INT  MOCLDY    79  73  83 CALM      29.90R
CAMERON PHI    NOT AVBL
GRAND CHENIER  NOT AVBL
JENNINGS       CLOUDY    77  73  88 MISG      29.90F
LAFAYETTE      LGT RAIN  76  72  87 NE6       29.93R
NEW IBERIA     MOCLDY    77  77 100 CALM      29.92R
ABBEVILLE      FAIR      76  76  98 CALM      29.92R
PATTERSON      MOCLDY    77  75  93 CALM      29.93R
SALT POINT       N/A     79  76  90 MISG      29.90R
$$

SELECTED SITES ACROSS THE REGION

CITY           SKY/WX    TMP DP  RH WIND       PRES   REMARKS
HOUSTON BUSH   PTCLDY    80  71  74 NE6       29.87R
HOUSTON HOBBY  FAIR      81  73  76 S8        29.87R
GALVESTON      FAIR      82  78  88 S8        29.88R
COLLEGE STAT   LGT RAIN  79  75  87 E6        29.85S
CONROE         MOCLDY    76  73  91 CALM      29.89R
HUNTSVILLE     PTCLDY    75  73  93 CALM      29.88R
LUFKIN         CLEAR     74  72  93 CALM      29.88S
SHREVEPORT     MOCLDY    70  69  97 CALM      29.86R
MONROE         CLOUDY    70  68  93 SW3       29.89R
NATCHEZ MS     LGT RAIN  72  71  97 SW3       29.90R
BATON ROUGE    RAIN      73  71  93 SW9       29.93R FOG
N.O. INTL ARPT FAIR      80  73  79 NW7       29.90R
SLIDELL        LGT RAIN  74  71  91 N3        29.90R
$$

MARINE REPORTS

STATION/POSITION TIME  SKY/WX   TEMP    WIND        PRES    VSBY
                                AIR SEA DIR/SP/G
                 (UTC)          (F)     (DEG/KT/KT) (MB)    (MI)
BUOY 30 S HIGH I 0150            85     210/  8/ 10 1012.8R
WVE H/P(F/S)=  2/ 5

SEA RIM ST PARK  NOT AVBL
PORT ARTHUR      0130            79 78  180/  2/  5 1012.4R
SABINE PASS N    0130            79 78  220/  2/  2 1013.7R
TEXAS POINT      0130            79 78  220/  4/  5 1010.7R
CALCASIEU PASS   0130            80 77  230/  5/  7 1011.3R
LK CHARLES BEACH 0130            80 79              1012.2R
MARSH ISLAND     0100            81                   N/A
FRESH WATER LOCK 0130            79 78  210/  1/  2 1012.5R
AMERADA PASS     0130            79 82  240/  1/  4 1012.8R
$$




USA.gov is the U.S. government's official web portal to all federal, state and local government web resources and services.